Location: Six Mile Lake
(44.9000°N, 79.7170°W)
Time: 02:19:27
(UTC-04:00)

Max Valier Satellite - Pass Details

Date: 01 July 2022
Orbit: 474 x 491 km, 97.2° (Epoch: 09 August)

Event Time Altitude Azimuth Distance (km) Brightness Sun altitude
Rises 21:38:51 0° 191° (S) 2,549 ? -5.1°
Reaches altitude 10° 21:41:06 10° 203° (SSW) 1,677 ? -5.4°
Maximum altitude 21:44:16 28° 264° (W) 951 ? -5.8°
Drops below altitude 10° 21:47:27 10° 325° (NW) 1,698 ? -6.2°
Sets 21:49:46 0° 338° (NNW) 2,588 ? -6.5°
